"startDT [UTC]","vpos","CH4 [ppm]","stdev(CH4) [ppm]","CO2 [ppm]","stdev(CO2) [ppm]","H2O [ppm]","stdev(H2O)","p_LGR [torr]","T_LGR [C]","mt1_LGR [us]","mt2_LGR [us]","T_ECpre [C]","T_EC1 [C]","T_EC2 [C]","p_inlet [hPa]","p_in [hPa]","p_out [hPa]","T_inlet [C]","RH_inlet [%]","dwpt_inlet [C]","T_vent [C]","RH_vent [%]","dwpt_vent [C]","flow_vent [l min-1]","flow_inlet [l min-1]","dwpt_sample [C]","T_room [C]"
2012-11-02 00:00:00,0.0,1.9078,0.0011,402.12,0.21,331.0,31.9,138.06,31.51,24.65,36.42,0.04,-272.75,-272.75,-42,564,-936,24.5,7.9,-12.2,24.7,7.9,-11.8,5.73,2.40,-22.0,30.0
2012-11-02 00:01:00,0.0,1.9075,0.0009,402.05,0.21,323.8,28.7,138.06,31.50,24.65,36.42,0.04,-272.74,-272.75,-42,563,-937,24.5,7.9,-12.2,24.7,7.9,-11.8,5.73,2.42,-22.1,29.9
2012-11-02 00:02:00,0.0,1.9069,0.0010,402.12,0.20,321.8,25.9,138.06,31.50,24.66,36.42,0.04,-272.75,-272.75,-42,564,-936,24.5,7.9,-12.1,24.7,8.0,-11.8,5.73,2.39,-22.1,29.9
2012-11-02 00:03:00,0.0,1.9062,0.0010,402.09,0.19,322.6,27.8,138.06,31.49,24.65,36.42,0.04,-272.75,-272.75,-42,563,-937,24.4,7.9,-12.2,24.7,7.9,-11.9,5.73,2.34,-22.1,29.9
2012-11-02 00:04:00,0.0,1.9065,0.0010,402.14,0.23,319.2,31.6,138.05,31.49,24.65,36.42,0.04,-272.74,-272.75,-42,564,-936,24.4,7.8,-12.2,24.7,7.9,-11.9,5.73,2.34,-22.1,29.9
2012-11-02 00:05:00,0.0,1.9056,0.0008,402.19,0.19,321.0,26.4,138.05,31.48,24.65,36.42,0.04,-272.75,-272.75,-42,564,-937,24.4,7.9,-12.2,24.7,7.9,-11.9,5.73,2.39,-22.1,29.9
2012-11-02 00:06:00,0.0,1.9046,0.0009,402.21,0.20,316.1,29.6,138.06,31.48,24.66,36.42,0.04,-272.75,-272.75,-42,563,-936,24.4,7.9,-12.2,24.7,7.9,-11.9,5.73,2.42,-22.1,29.9
2012-11-02 00:07:00,0.0,1.9042,0.0009,402.25,0.23,321.6,31.6,138.06,31.48,24.65,36.41,0.04,-272.75,-272.75,-42,563,-937,24.4,7.9,-12.2,24.7,7.9,-11.9,5.73,2.41,-22.2,29.8
2012-11-02 00:08:00,0.0,1.9039,0.0009,402.21,0.23,315.2,27.0,138.06,31.48,24.65,36.42,0.04,-272.75,-272.75,-42,563,-937,24.4,7.9,-12.2,24.7,7.9,-11.9,5.73,2.36,-22.2,29.8
2012-11-02 00:09:00,0.0,1.9038,0.0011,402.21,0.21,316.4,31.6,138.06,31.47,24.66,36.42,0.04,-272.75,-272.75,-42,563,-936,24.4,7.9,-12.2,24.7,7.9,-11.9,5.73,2.34,-22.2,29.8
2012-11-02 00:10:00,0.0,1.9040,0.0010,402.24,0.21,303.3,34.3,138.06,31.47,24.65,36.41,0.04,-272.75,-272.75,-42,563,-937,24.4,7.9,-12.2,24.7,7.9,-11.9,5.73,2.36,-22.2,29.8
2012-11-02 00:11:00,0.0,1.9037,0.0009,402.28,0.21,311.1,28.4,138.06,31.47,24.66,36.41,0.04,-272.75,-272.75,-42,563,-936,24.4,7.9,-12.2,24.7,7.9,-11.9,5.73,2.41,-22.2,29.8
2012-11-02 00:12:00,0.0,1.9042,0.0009,402.17,0.20,312.3,29.3,138.06,31.46,24.65,36.42,0.04,-272.75,-272.75,-43,563,-937,24.4,7.8,-12.3,24.7,7.9,-12.0,5.73,2.43,-22.2,29.7
2012-11-02 00:13:00,0.0,1.9039,0.0011,402.23,0.23,310.0,25.7,138.05,31.46,24.65,36.42,0.04,-272.75,-272.75,-43,563,-936,24.4,7.8,-12.3,24.7,7.9,-12.0,5.73,2.37,-22.2,29.8
2012-11-02 00:14:00,0.0,1.9034,0.0010,402.29,0.20,320.8,30.7,138.05,31.46,24.65,36.42,0.04,-272.75,-272.74,-42,563,-936,24.4,7.8,-12.3,24.7,7.9,-12.0,5.73,2.33,-22.2,29.8
2012-11-02 00:15:00,0.0,1.9034,0.0012,402.32,0.21,323.6,33.0,138.05,31.47,24.66,36.42,0.04,-272.74,-272.75,-42,563,-936,24.4,7.9,-12.2,24.7,7.9,-12.0,5.73,2.38,-22.2,29.8
2012-11-02 00:16:00,0.0,1.9039,0.0009,402.36,0.16,319.3,26.9,138.05,31.47,24.66,36.42,0.04,-272.75,-272.75,-42,563,-936,24.4,7.9,-12.2,24.7,7.9,-11.9,5.73,2.44,-22.2,29.8
2012-11-02 00:17:00,0.0,1.9042,0.0012,402.45,0.19,329.8,31.7,138.05,31.47,24.65,36.42,0.04,-272.75,-272.75,-42,563,-936,24.5,7.8,-12.3,24.7,7.9,-11.9,5.73,2.34,-22.1,29.9
2012-11-02 00:18:00,0.0,1.9042,0.0013,402.53,0.24,331.2,34.6,138.04,31.48,24.65,36.42,0.04,-272.75,-272.75,-42,563,-936,24.5,7.7,-12.4,24.8,7.8,-12.0,5.73,2.33,-22.0,29.9
2012-11-02 00:19:00,0.0,1.9047,0.0009,402.49,0.24,331.9,30.5,138.04,31.49,24.65,36.42,0.04,-272.75,-272.75,-42,563,-937,24.6,7.7,-12.4,24.8,7.8,-12.0,5.73,2.43,-21.9,30.0
2012-11-02 00:20:00,0.0,1.9044,0.0011,402.66,0.21,341.0,35.8,138.04,31.50,24.65,36.41,0.04,-272.75,-272.75,-42,563,-937,24.6,7.7,-12.3,24.9,7.8,-12.0,5.73,2.37,-21.9,30.1
2012-11-02 00:21:00,0.0,1.9039,0.0007,402.48,0.19,343.5,33.1,138.04,31.50,24.65,36.43,0.04,-272.75,-272.75,-43,563,-937,24.6,7.7,-12.3,24.9,7.8,-12.0,5.73,2.32,-21.9,30.1
2012-11-02 00:22:00,0.0,1.9044,0.0011,402.57,0.22,345.8,27.8,138.04,31.51,24.65,36.42,0.04,-272.74,-272.74,-43,563,-937,24.6,7.7,-12.3,24.9,7.8,-11.9,5.73,2.40,-21.8,30.1
2012-11-02 00:23:00,0.0,1.9045,0.0010,402.68,0.17,343.8,31.7,138.04,31.51,24.66,36.42,0.04,-272.75,-272.75,-42,563,-937,24.6,7.7,-12.3,24.9,7.8,-12.0,5.73,2.42,-21.9,30.0
2012-11-02 00:24:00,0.0,1.9041,0.0011,402.60,0.20,342.7,31.0,138.04,31.51,24.65,36.42,0.04,-272.75,-272.75,-42,563,-936,24.6,7.7,-12.4,24.9,7.8,-12.0,5.73,2.37,-21.9,30.1
2012-11-02 00:25:00,0.0,1.9037,0.0012,402.49,0.19,336.2,32.8,138.05,31.51,24.65,36.42,0.04,-272.75,-272.75,-42,564,-937,24.6,7.6,-12.4,24.9,7.7,-12.1,5.73,2.33,-21.9,30.1
2012-11-02 00:26:00,0.0,1.9033,0.0009,402.40,0.23,339.2,32.0,138.05,31.50,24.65,36.42,0.04,-272.74,-272.75,-42,564,-937,24.6,7.6,-12.4,24.9,7.7,-12.1,5.73,2.35,-21.9,30.0
2012-11-02 00:27:00,0.0,1.9032,0.0011,402.34,0.17,334.5,28.1,138.05,31.50,24.66,36.43,0.04,-272.75,-272.75,-43,564,-937,24.6,7.7,-12.3,24.9,7.8,-12.0,5.73,2.39,-21.9,30.0
2012-11-02 00:28:00,0.0,1.9026,0.0009,402.38,0.17,333.1,29.0,138.06,31.49,24.66,36.42,0.04,-272.74,-272.74,-43,564,-937,24.6,7.7,-12.2,24.9,7.8,-11.9,5.73,2.42,-22.0,30.0
2012-11-02 00:29:00,0.0,1.9023,0.0011,402.31,0.20,330.8,31.2,138.06,31.48,24.65,36.42,0.04,-272.75,-272.75,-43,564,-937,24.6,7.8,-12.2,24.9,7.9,-11.9,5.73,2.40,-22.0,30.0
2012-11-02 00:30:00,0.0,1.9024,0.0010,402.33,0.22,327.4,30.4,138.06,31.47,24.65,36.42,0.04,-272.74,-272.75,-43,564,-937,24.6,7.8,-12.2,24.8,7.9,-11.9,5.73,2.37,-22.0,30.0
2012-11-02 00:31:00,0.0,1.9015,0.0010,402.22,0.21,320.3,28.8,138.06,31.47,24.66,36.42,0.04,-272.75,-272.75,-43,564,-937,24.6,7.7,-12.2,24.8,7.8,-12.0,5.73,2.34,-22.0,30.0
2012-11-02 00:32:00,0.0,1.9021,0.0008,402.27,0.16,321.4,32.4,138.06,31.46,24.65,36.42,0.04,-272.75,-272.75,-43,564,-937,24.6,7.7,-12.3,24.8,7.8,-12.0,5.73,2.35,-22.0,30.0
2012-11-02 00:33:00,0.0,1.9016,0.0008,402.30,0.20,329.1,31.5,138.07,31.45,24.65,36.42,0.04,-272.75,-272.75,-43,564,-937,24.6,7.7,-12.3,24.8,7.8,-12.1,5.73,2.37,-22.1,30.0
2012-11-02 00:34:00,0.0,1.9022,0.0007,402.27,0.19,328.6,33.9,138.06,31.44,24.65,36.42,0.04,-272.75,-272.75,-43,564,-937,24.6,7.7,-12.3,24.8,7.8,-12.0,5.73,2.41,-22.1,30.0
2012-11-02 00:35:00,0.0,1.9011,0.0009,402.28,0.26,315.4,34.1,138.06,31.43,24.66,36.42,0.04,-272.75,-272.74,-43,564,-937,24.6,7.7,-12.3,24.8,7.8,-12.0,5.73,2.42,-22.1,29.9
2012-11-02 00:36:00,0.0,1.9009,0.0010,402.23,0.18,319.6,32.1,138.06,31.43,24.65,36.42,0.04,-272.75,-272.75,-43,564,-937,24.6,7.7,-12.4,24.8,7.8,-12.1,5.73,2.40,-22.1,29.9
2012-11-02 00:37:00,0.0,1.9005,0.0009,402.21,0.20,312.5,27.7,138.07,31.42,24.66,36.42,0.04,-272.75,-272.75,-43,564,-937,24.6,7.7,-12.4,24.8,7.8,-12.1,5.73,2.35,-22.1,29.9
2012-11-02 00:38:00,0.0,1.9014,0.0009,402.19,0.20,322.7,32.3,138.06,31.42,24.65,36.42,0.04,-272.75,-272.74,-43,564,-937,24.5,7.7,-12.4,24.8,7.8,-12.0,5.73,2.34,-22.1,29.9
2012-11-02 00:39:00,0.0,1.9011,0.0010,402.10,0.25,319.7,28.6,138.06,31.41,24.65,36.42,0.04,-272.75,-272.75,-43,564,-937,24.5,7.6,-12.5,24.8,7.7,-12.2,5.73,2.37,-22.2,29.9
2012-11-02 00:40:00,0.0,1.9009,0.0010,402.11,0.24,317.5,23.7,138.06,31.41,24.65,36.43,0.04,-272.75,-272.75,-43,564,-937,24.5,7.6,-12.5,24.8,7.7,-12.2,5.73,2.41,-22.2,29.9
2012-11-02 00:41:00,0.0,1.9004,0.0008,402.28,0.19,314.6,31.9,138.06,31.40,24.66,36.42,0.04,-272.74,-272.74,-43,564,-937,24.5,7.7,-12.4,24.8,7.8,-12.1,5.73,2.42,-22.2,29.9
2012-11-02 00:42:00,0.0,1.9007,0.0010,402.15,0.24,315.8,27.0,138.06,31.39,24.65,36.42,0.04,-272.75,-272.75,-43,564,-937,24.5,7.7,-12.4,24.8,7.8,-12.1,5.73,2.39,-22.2,29.8
2012-11-02 00:43:00,0.0,1.9012,0.0011,402.06,0.17,316.9,30.8,138.06,31.39,24.66,36.43,0.04,-272.75,-272.75,-43,564,-937,24.5,7.7,-12.4,24.7,7.7,-12.2,5.73,2.34,-22.2,29.8
2012-11-02 00:44:00,0.0,1.9017,0.0007,402.16,0.20,313.7,30.4,138.06,31.38,24.66,36.42,0.04,-272.75,-272.75,-43,564,-937,24.5,7.7,-12.4,24.8,7.8,-12.1,5.73,2.35,-22.2,29.8
2012-11-02 00:45:00,0.0,1.9024,0.0010,402.11,0.18,310.5,30.7,138.06,31.38,24.65,36.42,0.04,-272.75,-272.75,-43,564,-937,24.5,7.7,-12.4,24.7,7.8,-12.1,5.73,2.40,-22.2,29.8
2012-11-02 00:46:00,0.0,1.9021,0.0010,402.11,0.20,314.1,26.3,138.06,31.38,24.66,36.43,0.04,-272.75,-272.75,-43,563,-937,24.5,7.7,-12.4,24.8,7.8,-12.1,5.73,2.43,-22.2,29.8
2012-11-02 00:47:00,0.0,1.9016,0.0009,402.29,0.22,322.1,34.1,138.06,31.38,24.65,36.42,0.04,-272.75,-272.75,-43,564,-937,24.5,7.7,-12.4,24.8,7.8,-12.0,5.73,2.39,-22.2,29.8
2012-11-02 00:48:00,0.0,1.9019,0.0013,402.25,0.19,309.9,31.8,138.06,31.38,24.65,36.42,0.04,-272.75,-272.75,-43,563,-937,24.5,7.8,-12.3,24.7,7.8,-12.1,5.73,2.34,-22.2,29.8
2012-11-02 00:49:00,0.0,1.9014,0.0010,402.30,0.25,323.6,31.9,138.06,31.39,24.66,36.41,0.04,-272.75,-272.74,-42,564,-937,24.5,7.8,-12.3,24.7,7.8,-12.1,5.73,2.35,-22.2,29.8
2012-11-02 00:50:00,0.0,1.9016,0.0009,402.16,0.20,308.3,29.7,138.05,31.39,24.66,36.43,0.04,-272.75,-272.75,-42,563,-936,24.5,7.8,-12.3,24.7,7.8,-12.0,5.73,2.41,-22.2,29.8
2012-11-02 00:51:00,0.0,1.9032,0.0009,402.20,0.18,318.5,25.4,138.05,31.39,24.65,36.43,0.04,-272.75,-272.75,-42,563,-937,24.5,7.7,-12.4,24.7,7.8,-12.1,5.73,2.43,-22.2,29.7
2012-11-02 00:52:00,0.0,1.9026,0.0010,402.26,0.25,313.7,20.1,138.05,31.40,24.65,36.42,0.04,-272.75,-272.74,-43,563,-936,24.5,7.7,-12.5,24.7,7.7,-12.2,5.73,2.37,-22.2,29.8
2012-11-02 00:53:00,0.0,1.9023,0.0009,402.27,0.15,316.1,29.5,138.05,31.40,24.65,36.42,0.04,-272.75,-272.74,-43,563,-937,24.5,7.7,-12.4,24.7,7.7,-12.2,5.73,2.33,-22.2,29.7
2012-11-02 00:54:00,0.0,1.9019,0.0010,402.32,0.20,317.8,31.7,138.05,31.40,24.66,36.42,0.04,-272.75,-272.75,-43,563,-937,24.5,7.7,-12.4,24.7,7.8,-12.1,5.73,2.36,-22.2,29.8
2012-11-02 00:55:00,0.0,1.9025,0.0009,402.42,0.21,309.0,33.1,138.06,31.40,24.66,36.41,0.04,-272.75,-272.75,-43,563,-936,24.5,7.7,-12.4,24.7,7.8,-12.1,5.73,2.41,-22.2,29.8
2012-11-02 00:56:00,0.0,1.9028,0.0008,402.25,0.21,313.5,27.3,138.06,31.40,24.65,36.42,0.04,-272.74,-272.75,-42,563,-937,24.5,7.5,-12.7,24.7,7.6,-12.4,5.73,2.42,-22.2,29.7
2012-11-02 00:57:00,0.0,1.9023,0.0008,402.32,0.19,319.8,27.3,138.06,31.39,24.65,36.42,0.04,-272.75,-272.75,-42,563,-936,24.5,7.6,-12.6,24.7,7.7,-12.3,5.73,2.39,-22.3,29.8
2012-11-02 00:58:00,0.0,1.9028,0.0009,402.29,0.20,314.8,29.4,138.06,31.39,24.66,36.42,0.04,-272.74,-272.75,-42,563,-937,24.5,7.7,-12.5,24.7,7.7,-12.2,5.73,2.35,-22.3,29.8
2012-11-02 00:59:00,0.0,1.9028,0.0010,402.25,0.24,317.8,33.8,138.06,31.38,24.66,36.42,0.04,-272.75,-272.75,-43,563,-936,24.5,7.7,-12.5,24.7,7.7,-12.2,5.73,2.34,-22.3,29.7
2012-11-02 01:00:00,0.0,1.9025,0.0012,402.24,0.23,318.4,26.0,138.06,31.38,24.66,36.42,0.04,-272.75,-272.75,-43,563,-937,24.5,7.6,-12.6,24.7,7.7,-12.3,5.73,2.38,-22.3,29.8
2012-11-02 01:01:00,0.0,1.9026,0.0008,402.24,0.23,306.0,29.2,138.06,31.38,24.66,36.42,0.04,-272.75,-272.75,-43,563,-936,24.4,7.6,-12.6,24.7,7.6,-12.3,5.73,2.42,-22.3,29.7
2012-11-02 01:02:00,0.0,1.9026,0.0010,402.20,0.22,308.6,31.4,138.06,31.37,24.65,36.42,0.04,-272.75,-272.75,-43,563,-937,24.5,7.6,-12.6,24.7,7.6,-12.3,5.73,2.41,-22.3,29.7
2012-11-02 01:03:00,0.0,1.9024,0.0008,402.31,0.21,312.3,29.7,138.06,31.37,24.66,36.42,0.04,-272.75,-272.75,-43,563,-936,24.5,7.6,-12.7,24.7,7.6,-12.4,5.73,2.35,-22.2,29.7
2012-11-02 01:04:00,0.0,1.9029,0.0008,402.18,0.19,309.8,27.7,138.06,31.37,24.65,36.43,0.04,-272.75,-272.75,-42,563,-936,24.4,7.6,-12.6,24.7,7.6,-12.3,5.73,2.34,-22.2,29.7
2012-11-02 01:05:00,0.0,1.9033,0.0007,402.18,0.21,305.3,29.6,138.06,31.37,24.65,36.43,0.04,-272.75,-272.74,-42,563,-936,24.4,7.6,-12.6,24.7,7.6,-12.3,5.73,2.39,-22.3,29.7
2012-11-02 01:06:00,0.0,1.9028,0.0010,402.31,0.20,314.1,29.2,138.05,31.37,24.66,36.42,0.04,-272.74,-272.75,-43,563,-936,24.4,7.6,-12.6,24.7,7.6,-12.3,5.73,2.43,-22.3,29.7
2012-11-02 01:07:00,0.0,1.9024,0.0009,402.36,0.20,317.8,28.6,138.06,31.38,24.66,36.42,0.04,-272.75,-272.75,-43,563,-936,24.4,7.6,-12.6,24.7,7.7,-12.3,5.73,2.39,-22.3,29.7
2012-11-02 01:08:00,0.0,1.9027,0.0011,402.22,0.20,307.7,30.2,138.06,31.37,24.65,36.42,0.04,-272.75,-272.75,-43,563,-936,24.4,7.6,-12.6,24.7,7.7,-12.3,5.73,2.35,-22.3,29.7
2012-11-02 01:09:00,0.0,1.9032,0.0008,402.35,0.22,314.4,34.1,138.06,31.37,24.65,36.42,0.04,-272.74,-272.75,-42,563,-937,24.4,7.6,-12.6,24.7,7.7,-12.3,5.73,2.34,-22.3,29.7
2012-11-02 01:10:00,0.0,1.9034,0.0010,402.29,0.17,306.6,26.3,138.06,31.37,24.65,36.42,0.04,-272.75,-272.75,-42,563,-936,24.4,7.6,-12.6,24.7,7.7,-12.3,5.73,2.39,-22.3,29.7
2012-11-02 01:11:00,0.0,1.9033,0.0007,402.32,0.23,306.4,33.8,138.06,31.37,24.65,36.42,0.04,-272.75,-272.75,-42,563,-936,24.4,7.6,-12.6,24.7,7.6,-12.4,5.73,2.42,-22.3,29.7
2012-11-02 01:12:00,0.0,1.9031,0.0011,402.23,0.22,309.6,29.3,138.06,31.37,24.66,36.43,0.04,-272.74,-272.75,-42,563,-936,24.4,7.6,-12.6,24.7,7.7,-12.4,5.73,2.41,-22.3,29.7
2012-11-02 01:13:00,0.0,1.9033,0.0009,402.34,0.18,311.7,34.8,138.06,31.36,24.66,36.42,0.04,-272.75,-272.75,-42,563,-937,24.4,7.6,-12.6,24.7,7.7,-12.3,5.73,2.36,-22.3,29.7
2012-11-02 01:14:00,0.0,1.9030,0.0009,402.26,0.21,303.1,28.6,138.06,31.36,24.66,36.42,0.04,-272.75,-272.75,-43,563,-936,24.4,7.6,-12.6,24.7,7.7,-12.3,5.73,2.34,-22.3,29.7
2012-11-02 01:15:00,0.0,1.9026,0.0007,402.21,0.18,310.7,32.0,138.06,31.36,24.65,36.43,0.04,-272.75,-272.75,-42,563,-936,24.4,7.6,-12.6,24.7,7.6,-12.3,5.73,2.37,-22.3,29.7
2012-11-02 01:16:00,0.0,1.9024,0.0008,402.17,0.18,310.2,31.3,138.06,31.35,24.66,36.43,0.04,-272.74,-272.75,-42,563,-936,24.4,7.6,-12.6,24.7,7.6,-12.3,5.73,2.42,-22.3,29.7
2012-11-02 01:17:00,0.0,1.9031,0.0009,402.29,0.22,306.7,29.5,138.07,31.35,24.66,36.42,0.04,-272.75,-272.75,-42,563,-936,24.4,7.6,-12.6,24.7,7.7,-12.3,5.73,2.42,-22.3,29.7
2012-11-02 01:18:00,0.0,1.9025,0.0011,402.22,0.21,315.7,31.6,138.07,31.34,24.66,36.42,0.04,-272.75,-272.75,-42,563,-937,24.4,7.6,-12.6,24.7,7.6,-12.3,5.73,2.39,-22.3,29.7
2012-11-02 01:19:00,0.0,1.9019,0.0010,402.27,0.20,319.7,30.3,138.07,31.33,24.66,36.42,0.04,-272.75,-272.75,-42,563,-936,24.4,7.6,-12.6,24.7,7.7,-12.3,5.73,2.35,-22.3,29.7
2012-11-02 01:20:00,0.0,1.9026,0.0009,402.24,0.21,305.2,33.8,138.07,31.33,24.65,36.42,0.04,-272.75,-272.75,-42,563,-937,24.4,7.6,-12.6,24.7,7.6,-12.4,5.73,2.34,-22.3,29.7
2012-11-02 01:21:00,0.0,1.9021,0.0009,402.21,0.20,317.9,32.3,138.06,31.32,24.66,36.42,0.04,-272.75,-272.75,-42,563,-936,24.4,7.6,-12.6,24.7,7.7,-12.4,5.73,2.38,-22.3,29.7
2012-11-02 01:22:00,0.0,1.9026,0.0011,402.35,0.17,305.1,33.7,138.06,31.32,24.66,36.41,0.04,-272.74,-272.74,-42,563,-937,24.4,7.6,-12.6,24.7,7.7,-12.3,5.73,2.43,-22.3,29.7
2012-11-02 01:23:00,0.0,1.9031,0.0009,402.25,0.24,307.8,27.9,138.06,31.32,24.65,36.42,0.04,-272.74,-272.75,-43,563,-936,24.4,7.7,-12.6,24.7,7.7,-12.3,5.73,2.41,-22.3,29.7
2012-11-02 01:24:00,0.0,1.9037,0.0011,402.28,0.21,313.0,27.1,138.06,31.32,24.65,36.41,0.04,-272.75,-272.76,-43,563,-936,24.3,7.7,-12.6,24.7,7.7,-12.3,5.73,2.34,-22.3,29.7
2012-11-02 01:25:00,0.0,1.9030,0.0008,402.22,0.25,311.6,26.2,138.06,31.32,24.66,36.42,0.04,-272.74,-272.75,-42,563,-937,24.4,7.6,-12.6,24.7,7.7,-12.3,5.73,2.35,-22.3,29.7
2012-11-02 01:26:00,0.0,1.9034,0.0009,402.22,0.18,302.2,28.3,138.05,31.32,24.65,36.42,0.04,-272.74,-272.75,-42,563,-936,24.4,7.7,-12.6,24.7,7.7,-12.3,5.73,2.44,-22.2,29.7
2012-11-02 01:27:00,0.0,1.9039,0.0010,402.31,0.21,311.5,29.1,138.05,31.33,24.66,36.43,0.04,-272.75,-272.75,-43,563,-937,24.4,7.7,-12.5,24.7,7.7,-12.2,5.73,2.39,-22.2,29.7
2012-11-02 01:28:00,0.0,1.9035,0.0009,402.37,0.19,320.5,31.4,138.05,31.34,24.65,36.42,0.04,-272.75,-272.75,-43,563,-937,24.4,7.7,-12.5,24.7,7.8,-12.2,5.73,2.32,-22.2,29.7
2012-11-02 01:29:00,0.0,1.9026,0.0010,402.30,0.19,311.0,32.2,138.05,31.34,24.66,36.43,0.04,-272.74,-272.75,-42,563,-936,24.4,7.7,-12.5,24.7,7.7,-12.2,5.73,2.37,-22.2,29.8
2012-11-02 01:30:00,0.0,1.9032,0.0008,402.35,0.19,320.9,27.3,138.05,31.35,24.65,36.42,0.04,-272.75,-272.75,-42,563,-937,24.4,7.7,-12.5,24.7,7.7,-12.2,5.73,2.42,-22.2,29.8
2012-11-02 01:31:00,0.0,1.9036,0.0009,402.29,0.21,316.4,28.6,138.05,31.35,24.65,36.42,0.04,-272.75,-272.75,-42,563,-936,24.5,7.6,-12.5,24.7,7.7,-12.2,5.73,2.41,-22.2,29.8
2012-11-02 01:32:00,0.0,1.9034,0.0009,402.33,0.19,317.1,28.4,138.06,31.34,24.65,36.42,0.04,-272.75,-272.74,-42,563,-937,24.5,7.6,-12.6,24.7,7.7,-12.3,5.73,2.38,-22.1,29.8
2012-11-02 01:33:00,0.0,1.9025,0.0010,402.17,0.21,314.4,31.9,138.06,31.34,24.66,36.43,0.04,-272.74,-272.75,-42,563,-937,24.5,7.6,-12.5,24.7,7.7,-12.2,5.73,2.36,-22.2,29.8
2012-11-02 01:34:00,0.0,1.9027,0.0008,402.19,0.19,314.4,31.5,138.06,31.33,24.65,36.42,0.04,-272.75,-272.75,-43,563,-936,24.5,7.6,-12.6,24.7,7.7,-12.2,5.73,2.35,-22.2,29.8
2012-11-02 01:35:00,0.0,1.9022,0.0010,402.16,0.18,314.8,26.5,138.06,31.33,24.66,36.42,0.04,-272.75,-272.75,-43,563,-937,24.5,7.6,-12.6,24.7,7.7,-12.3,5.73,2.37,-22.2,29.8
2012-11-02 01:36:00,0.0,1.9016,0.0008,402.16,0.16,321.7,34.6,138.06,31.32,24.66,36.42,0.04,-272.74,-272.75,-43,563,-937,24.5,7.6,-12.6,24.7,7.6,-12.4,5.73,2.40,-22.2,29.8
2012-11-02 01:37:00,0.0,1.9020,0.0011,402.22,0.20,330.2,33.6,138.07,31.32,24.65,36.42,0.04,-272.75,-272.75,-43,563,-937,24.5,7.5,-12.7,24.7,7.6,-12.4,5.73,2.42,-22.2,29.8
2012-11-02 01:38:00,0.0,1.9021,0.0010,402.12,0.21,322.2,33.0,138.07,31.31,24.65,36.43,0.04,-272.75,-272.75,-43,563,-937,24.5,7.6,-12.6,24.7,7.6,-12.4,5.73,2.41,-22.2,29.8
2012-11-02 01:39:00,0.0,1.9022,0.0010,402.30,0.23,315.5,31.1,138.07,31.30,24.65,36.42,0.04,-272.75,-272.74,-43,563,-937,24.4,7.6,-12.6,24.7,7.7,-12.3,5.73,2.38,-22.2,29.8
2012-11-02 01:40:00,0.0,1.9018,0.0009,402.23,0.19,317.7,30.2,138.07,31.30,24.65,36.42,0.04,-272.75,-272.75,-43,563,-937,24.4,7.6,-12.6,24.7,7.7,-12.3,5.73,2.35,-22.2,29.8
2012-11-02 01:41:00,0.0,1.9011,0.0008,402.22,0.24,321.9,30.0,138.07,31.29,24.65,36.42,0.04,-272.75,-272.75,-43,563,-937,24.5,7.6,-12.6,24.7,7.7,-12.3,5.73,2.35,-22.2,29.8
2012-11-02 01:42:00,0.0,1.9012,0.0009,402.18,0.19,315.5,24.2,138.07,31.29,24.65,36.43,0.04,-272.75,-272.75,-43,563,-937,24.5,7.6,-12.6,24.7,7.6,-12.3,5.73,2.38,-22.2,29.8
2012-11-02 01:43:00,0.0,1.9007,0.0010,402.22,0.23,328.7,29.1,138.07,31.28,24.65,36.42,0.04,-272.75,-272.75,-43,563,-937,24.5,7.6,-12.7,24.7,7.7,-12.3,5.73,2.41,-22.2,29.8
2012-11-02 01:44:00,0.0,1.9013,0.0010,402.18,0.22,317.5,28.5,138.07,31.27,24.65,36.42,0.04,-272.75,-272.75,-43,563,-937,24.5,7.6,-12.6,24.7,7.6,-12.4,5.73,2.43,-22.2,29.8
2012-11-02 01:45:00,0.0,1.9012,0.0011,402.16,0.20,313.0,29.7,138.07,31.27,24.65,36.42,0.04,-272.75,-272.74,-43,563,-937,24.5,7.6,-12.6,24.7,7.6,-12.3,5.73,2.40,-22.2,29.8
2012-11-02 01:46:00,0.0,1.9010,0.0010,402.10,0.23,315.2,34.3,138.07,31.26,24.66,36.43,0.04,-272.75,-272.75,-43,563,-937,24.5,7.6,-12.6,24.7,7.6,-12.3,5.73,2.36,-22.3,29.8
2012-11-02 01:47:00,0.0,1.9017,0.0008,402.16,0.20,315.3,31.9,138.07,31.26,24.65,36.42,0.04,-272.75,-272.75,-43,563,-937,24.5,7.6,-12.6,24.7,7.6,-12.3,5.73,2.35,-22.3,29.8
2012-11-02 01:48:00,0.0,1.9019,0.0010,402.15,0.21,311.4,34.3,138.07,31.26,24.65,36.42,0.04,-272.75,-272.75,-43,563,-937,24.5,7.6,-12.6,24.7,7.6,-12.3,5.73,2.38,-22.3,29.8
2012-11-02 01:49:00,0.0,1.9013,0.0009,402.17,0.17,318.3,29.8,138.07,31.25,24.65,36.42,0.04,-272.75,-272.75,-43,563,-937,24.5,7.6,-12.6,24.7,7.7,-12.3,5.73,2.42,-22.3,29.8
2012-11-02 01:50:00,0.0,1.9020,0.0009,402.17,0.19,310.2,34.3,138.07,31.25,24.65,36.42,0.04,-272.75,-272.75,-43,563,-937,24.5,7.6,-12.6,24.7,7.7,-12.3,5.73,2.43,-22.3,29.8
2012-11-02 01:51:00,0.0,1.9013,0.0008,402.06,0.26,309.4,33.7,138.06,31.25,24.66,36.43,0.04,-272.75,-272.75,-43,563,-937,24.5,7.6,-12.6,24.7,7.7,-12.3,5.73,2.39,-22.3,29.8
2012-11-02 01:52:00,0.0,1.9013,0.0009,402.24,0.19,313.7,33.0,138.07,31.24,24.66,36.41,0.04,-272.75,-272.75,-43,563,-937,24.5,7.6,-12.6,24.7,7.7,-12.3,5.73,2.35,-22.3,29.8
2012-11-02 01:53:00,0.0,1.9022,0.0010,402.28,0.19,315.4,30.6,138.06,31.24,24.65,36.42,0.04,-272.75,-272.75,-43,563,-937,24.5,7.6,-12.6,24.7,7.7,-12.3,5.73,2.35,-22.3,29.7
2012-11-02 01:54:00,0.0,1.9019,0.0010,402.21,0.22,315.8,30.5,138.06,31.24,24.66,36.42,0.04,-272.75,-272.75,-43,563,-937,24.5,7.6,-12.6,24.7,7.7,-12.3,5.73,2.39,-22.3,29.7
2012-11-02 01:55:00,0.0,1.9016,0.0008,402.13,0.19,307.5,34.4,138.07,31.24,24.66,36.43,0.04,-272.75,-272.75,-43,563,-937,24.5,7.6,-12.6,24.7,7.6,-12.3,5.73,2.42,-22.3,29.7
2012-11-02 01:56:00,0.0,1.9013,0.0010,402.14,0.25,316.4,27.2,138.06,31.24,24.66,36.43,0.04,-272.74,-272.75,-43,563,-937,24.5,7.6,-12.7,24.7,7.6,-12.3,5.73,2.42,-22.3,29.7
2012-11-02 01:57:00,0.0,1.9014,0.0008,402.11,0.19,305.8,33.6,138.06,31.24,24.66,36.43,0.04,-272.75,-272.75,-43,563,-937,24.5,7.6,-12.6,24.8,7.7,-12.3,5.73,2.38,-22.3,29.7
2012-11-02 01:58:00,0.0,1.9011,0.0009,402.17,0.18,318.3,26.9,138.06,31.24,24.66,36.42,0.04,-272.75,-272.75,-43,563,-937,24.5,7.6,-12.6,24.7,7.6,-12.3,5.73,2.35,-22.3,29.7
2012-11-02 01:59:00,0.0,1.9016,0.0011,402.11,0.22,312.8,29.3,138.07,31.23,24.65,36.42,0.04,-272.75,-272.75,-43,563,-937,24.5,7.5,-12.7,24.7,7.6,-12.3,5.73,2.35,-22.3,29.7
2012-11-02 02:00:00,0.0,1.9021,0.0009,402.21,0.20,316.0,24.9,138.07,31.23,24.65,36.42,0.04,-272.75,-272.74,-43,563,-937,24.5,7.5,-12.7,24.7,7.6,-12.4,5.73,2.39,-22.3,29.7
2012-11-02 02:01:00,0.0,1.9013,0.0010,402.17,0.16,312.4,33.8,138.07,31.23,24.65,36.42,0.04,-272.75,-272.75,-43,563,-938,24.5,7.6,-12.6,24.7,7.6,-12.3,5.73,2.42,-22.3,29.7
2012-11-02 02:02:00,0.0,1.9018,0.0011,402.22,0.25,312.2,35.0,138.07,31.22,24.65,36.42,0.04,-272.75,-272.75,-43,563,-937,24.5,7.6,-12.6,24.7,7.7,-12.3,5.73,2.42,-22.3,29.7
2012-11-02 02:03:00,0.0,1.9011,0.0010,402.15,0.19,319.6,32.3,138.07,31.21,24.65,36.42,0.04,-272.74,-272.75,-43,563,-937,24.5,7.6,-12.6,24.7,7.7,-12.3,5.73,2.40,-22.3,29.7
2012-11-02 02:04:00,0.0,1.9012,0.0008,402.17,0.22,311.8,34.6,138.07,31.21,24.65,36.42,0.04,-272.75,-272.75,-43,563,-937,24.5,7.6,-12.6,24.7,7.6,-12.3,5.73,2.36,-22.3,29.7
2012-11-02 02:05:00,0.0,1.9018,0.0010,402.16,0.20,317.6,31.0,138.07,31.21,24.65,36.42,0.04,-272.75,-272.75,-43,563,-937,24.5,7.6,-12.6,24.7,7.7,-12.3,5.73,2.35,-22.3,29.7
2012-11-02 02:06:00,0.0,1.9012,0.0009,402.03,0.20,321.0,33.2,138.06,31.21,24.65,36.43,0.04,-272.75,-272.75,-43,563,-937,24.5,7.6,-12.6,24.7,7.7,-12.3,5.73,2.39,-22.3,29.7
2012-11-02 02:07:00,0.0,1.9013,0.0011,402.22,0.18,316.7,29.0,138.06,31.21,24.66,36.42,0.04,-272.75,-272.75,-43,563,-937,24.5,7.6,-12.6,24.7,7.6,-12.3,5.73,2.44,-22.3,29.7
2012-11-02 02:08:00,0.0,1.9019,0.0009,402.17,0.16,311.7,27.3,138.06,31.21,24.66,36.42,0.04,-272.75,-272.75,-43,563,-937,24.5,7.6,-12.6,24.7,7.6,-12.3,5.73,2.40,-22.2,29.8
2012-11-02 02:09:00,0.0,1.9023,0.0010,402.24,0.18,304.7,31.3,138.06,31.22,24.66,36.41,0.04,-272.75,-272.75,-43,563,-937,24.5,7.6,-12.6,24.7,7.6,-12.3,5.73,2.33,-22.2,29.8
2012-11-02 02:10:00,0.0,1.9025,0.0010,402.19,0.20,315.8,32.4,138.05,31.22,24.65,36.42,0.04,-272.75,-272.75,-43,563,-937,24.5,7.6,-12.6,24.7,7.6,-12.3,5.73,2.37,-22.2,29.8
2012-11-02 02:11:00,0.0,1.9033,0.0009,402.11,0.19,307.7,29.9,138.05,31.23,24.65,36.43,0.04,-272.75,-272.75,-43,563,-937,24.5,7.6,-12.6,24.7,7.7,-12.3,5.73,2.43,-22.2,29.8
2012-11-02 02:12:00,0.0,1.9024,0.0010,402.12,0.17,311.9,35.2,138.06,31.23,24.65,36.43,0.04,-272.75,-272.75,-43,563,-938,24.5,7.6,-12.6,24.7,7.7,-12.3,5.73,2.42,-22.2,29.8
2012-11-02 02:13:00,0.0,1.9027,0.0010,402.12,0.21,309.3,29.7,138.06,31.23,24.65,36.43,0.04,-272.75,-272.75,-43,563,-937,24.5,7.5,-12.7,24.7,7.6,-12.3,5.73,2.37,-22.2,29.8
2012-11-02 02:14:00,0.0,1.9025,0.0007,402.20,0.20,304.6,36.8,138.06,31.23,24.66,36.42,0.04,-272.75,-272.75,-43,563,-938,24.5,7.5,-12.7,24.7,7.6,-12.3,5.73,2.34,-22.2,29.8
2012-11-02 02:15:00,0.0,1.9024,0.0012,402.20,0.20,312.2,30.0,138.06,31.23,24.66,36.42,0.04,-272.75,-272.75,-43,563,-938,24.5,7.5,-12.7,24.7,7.6,-12.3,5.73,2.36,-22.2,29.8
2012-11-02 02:16:00,0.0,1.9025,0.0010,402.20,0.24,310.4,28.2,138.06,31.23,24.65,36.43,0.28,-270.73,-272.14,-43,563,-938,24.5,7.5,-12.7,24.7,7.6,-12.4,5.42,2.43,-26.8,29.7